Location: Montr�al
(45.5000°N, 73.5830°W)
Time: 09:35:48
(UTC-04:00)

Cosmos 1151 Rocket - Visible Passes

Search period start: 18 April 2014 00:00
Search period end: 28 April 2014 00:00
Orbit: 595 x 619 km, 82.5° (Epoch: 17 April)

Date Brightness Start Highest point End Pass type
(mag) Time Alt. Az. Time Alt. Az. Time Alt. Az.
18 Apr 3.3 04:21:24 10° N 04:25:43 67° E 04:29:58 10° SSE visible
19 Apr 6.0 02:59:25 10° NE 03:01:04 12° ENE 03:02:42 10° E visible
19 Apr 2.9 04:34:56 10° NNW 04:39:14 72° W 04:43:29 10° S visible
20 Apr 5.6 03:11:46 10° NNE 03:14:51 19° ENE 03:17:54 10° ESE visible
20 Apr 3.4 04:48:37 10° NNW 04:52:41 42° W 04:56:42 10° SSW visible
21 Apr 4.8 03:24:46 10° NNE 03:28:34 30° ENE 03:32:19 10° SE visible
21 Apr 4.1 05:02:32 10° NNW 05:06:04 25° W 05:09:34 10° SW visible
22 Apr 3.9 03:38:01 10° N 03:42:12 49° ENE 03:46:01 12° SSE visible
22 Apr 4.7 05:16:49 10° NW 05:19:23 16° W 05:21:55 10° WSW visible
23 Apr 3.0 03:51:26 10° N 03:55:46 83° E 03:58:44 20° S visible
24 Apr 5.8 02:28:52 10° NNE 02:31:13 14° ENE 02:33:33 10° E visible
24 Apr 3.0 04:05:02 10° NNW 04:09:15 58° W 04:11:33 25° SSW visible
25 Apr 5.2 02:41:34 10° NNE 02:44:58 22° ENE 02:47:35 14° ESE visible
25 Apr 3.7 04:18:47 10° NNW 04:22:40 34° W 04:24:27 24° SW visible
26 Apr 4.4 02:54:40 10° N 02:58:39 36° ENE 03:00:33 24° ESE visible
26 Apr 4.4 04:32:48 10° NW 04:36:01 21° W 04:37:25 18° WSW visible
27 Apr 3.4 03:07:59 10° N 03:12:15 60° E 03:13:34 40° SE visible
27 Apr 4.9 04:47:24 10° WNW 04:49:17 13° W 04:50:26 12° W visible
